Tracking 20370 objects as of 20-Feb-2020
HD Live streaming from Space Station
objects crossing your sky now
Track the group of recently launched Starlink satellites

COSMOS 832

Track COSMOS 832 now!
10-day predictions
COSMOS 832 is classified as:


NORAD ID: 8896
Int'l Code: 1976-054H
Perigee: 1,489.8 km
Apogee: 1,526.8 km
Inclination: 74.0 °
Period: 116.0 minutes
Semi major axis: 7879 km
RCS: 0.7035 m2 (medium)
Launch date: June 15, 1976
Source: Commonwealth of Independent States (former USSR) (CIS)
Launch site: PLESETSK MISSILE AND SPACE COMPLEX (PKMTR)
aabbcc
Your satellite tracking list
Your tracking list is empty




NASA's NSSDC Master Catalog

Two Line Element Set (TLE):
1  8896U 76054H   20050.60670691 -.00000011 +00000-0 +35306-4 0  9999
2  8896 073.9990 100.7078 0023531 099.4366 055.3607 12.41285518979293
Source of the keplerian elements: AFSPC